STARLINK-31909, 59663

Orbit data source: Space-Track

STARLINK-31909, 59663 is a payload satellite owned by SpaceX/Seattle (US) in LEO that was launched on Mon, 06 May 2024 UTC via an FALCON 9 launch vehicle from the Air Force Eastern Test Range (AFETR). Payload-class satellites include a variety of spacecraft equipped with specific instruments for various scientific and technological missions. These include communications satellites like Starlink; space stations such as the ISS; scientific satellites like the Hubble; Earth observation satellites from companies like Planet Labs, Umbra, and HawkEye 360; GPS; miniature CubeSats for education and research; and military/defense satellites.

Loading next visibility...
Identifier
59663, 2024-084K
Orbit
LEO
Country
Flag of USUS
Related business
Manufacturer
SpaceX/Seattle
Mission
Operational Commercial Communications
Bus & Motor
STARLINK V2M, Unknown motor
Mass
730 kg wet, ~700 kg dry
Launch date (UTC)
2024-05-06 (1 year ago)
Launch vehicle
FALCON 9
Launch site
Air Force Eastern Test Range (AFETR)
Object type
Payload
Rocket body
Debris
Shape & HBR
Box + 2 Pan, 17.7 m
Radar Cross Section
33.884 m², Large (>1 m²)

Expand to show TLE details & history
Last TLE update: 4 hours ago

TLE from 4 hours ago
0 STARLINK-31909
1 59663U 24084K   25288.63494635  .00009470  00000-0  35313-3 0  9990
2 59663  42.9997 140.6290 0001246 276.9809  83.0901 15.27586186 82197
Epoch: 2025-10-15T15:14Z
TLE epoch observation values (Epoch: 2025-10-15T15:14:19.364Z)
Latitude
-0.00002°
Longitude
-112.3579°
Altitude
482.703 km
Speed
7.626 km/s
True Right ascension
09h 22m 30s
True Declination
0° 00' 00"
Sunlit
Object was in daylight at epoch
Visualization orbit readout
Latitude
Unknown
Longitude
Unknown
Altitude
Unknown
Speed
Unknown
Apparent Right ascension
Unknown
Apparent Declination
Unknown
Sunlit
N/A
Visualization observer readout
Local Sidereal Time
13:49:20
Azimuth
Unknown
Elevation
Unknown
Doppler factor
Unknown
Orbital elements
Apogee altitude
485.831 km
Perigee altitude
484.121 km
Semi-major axis
6,863.113 km
Eccentricity
0.00012
Inclination
42.9997°
RAAN
140.629°
Arg. of periapsis
276.9809°
True anomaly
83.10427°
Mean anomaly
83.0901°
Eccentric anomaly
83.09719°
Mean motion
3.81735 °/min
Orbital period
94.31 mins
BSTAR
0.00035313
Loading maneuver chart data...
Computing Atmospheric mass density...
Loading historical data...
Loading historical data...
Loading historical data...
Loading historical data...
Loading historical data...
Loading historical data...
Loading historical data...

Documentation

Showing up to 5 results
|